Simultaneous Nadir Overpasses (SNOs) Predictions

Prediction of SNOs between METOP-B and TERRA Satellite Orbit:

Table of predicted SNOs for the next 14.0 days since TLE Epoch: 3/19/2022
Index Date (METOP-B) Time (METOP-B) Lat,Lon (METOP-B) SZA (METOP-B ) Date (TERRA) Time (TERRA) Lat,Lon (TERRA) SZA (TERRA ) Distance(km) Time Diff (sec)
1 03/19/2022 02:42:51 81.25,-177.74 83.97 03/19/2022 02:43:40 81.25,-177.89 83.97 2.50 49
2 03/19/2022 03:33:31 -81.26, -10.02 96.00 03/19/2022 03:33:06 -81.26, -10.00 96.01 0.49 25
3 03/21/2022 22:17:12 81.25,-111.43 82.87 03/21/2022 22:17:50 81.24,-111.56 82.87 2.39 38
4 03/21/2022 23:07:52 -81.26, 56.29 97.10 03/21/2022 23:07:16 -81.26, 56.35 97.11 1.01 36
5 03/24/2022 17:51:31 81.25, -44.76 81.82 03/24/2022 17:51:58 81.25, -44.95 81.81 3.24 27
6 03/24/2022 18:42:11 -81.26, 122.96 98.15 03/24/2022 18:41:24 -81.27, 122.99 98.16 0.76 47
7 03/27/2022 13:25:52 81.25, 21.49 80.72 03/27/2022 13:26:07 81.26, 21.57 80.74 1.54 15
8 03/27/2022 14:16:32 -81.26,-170.79 99.25 03/27/2022 14:15:34 -81.25,-170.83 99.28 1.11 58
9 03/30/2022 09:00:12 81.25, 88.09 79.68 03/30/2022 09:00:16 81.25, 88.01 79.67 1.46 4



Historial Predications of SNOs between METOP-B and TERRA
